Time,TemperatureF,DewpointF,PressureIn,WindDirection,WindDirectionDegrees,WindSpeedMPH,WindSpeedGustMPH,Humidity,HourlyPrecipIn,Conditions,Clouds,dailyrainin,SoftwareType,DateUTC
2013-04-24 00:11:00,65.0,52.0,29.89,SW,233,3.0,5.0,62,0.00,,,0.00,weatherlink.com 1.10,2013-04-24 04:11:00,
2013-04-24 00:26:00,64.7,51.0,29.88,WSW,249,3.0,6.0,62,0.00,,,0.00,weatherlink.com 1.10,2013-04-24 04:26:00,
2013-04-24 00:41:00,64.5,51.0,29.88,SW,226,2.0,7.0,62,0.00,,,0.00,weatherlink.com 1.10,2013-04-24 04:41:00,
2013-04-24 00:56:00,64.9,51.0,29.87,SSE,166,4.0,8.0,62,0.00,,,0.00,weatherlink.com 1.10,2013-04-24 04:56:00,
2013-04-24 01:11:00,65.2,51.0,29.85,WSW,257,3.0,9.0,61,0.00,,,0.00,weatherlink.com 1.10,2013-04-24 05:11:00,
2013-04-24 01:26:00,65.6,52.0,29.86,SW,214,11.0,13.0,61,0.00,,,0.00,weatherlink.com 1.10,2013-04-24 05:26:00,
2013-04-24 01:41:00,65.8,52.0,29.84,SSE,158,4.0,19.0,61,0.00,,,0.00,weatherlink.com 1.10,2013-04-24 05:41:00,
2013-04-24 01:56:00,65.9,52.0,29.84,South,180,2.0,15.0,61,0.00,,,0.00,weatherlink.com 1.10,2013-04-24 05:56:00,
2013-04-24 02:11:00,65.8,52.0,29.83,SSE,166,3.0,13.0,62,0.00,,,0.00,weatherlink.com 1.10,2013-04-24 06:11:00,
2013-04-24 02:26:00,65.8,52.0,29.83,SW,228,9.0,13.0,62,0.00,,,0.00,weatherlink.com 1.10,2013-04-24 06:26:00,
2013-04-24 02:41:00,65.7,53.0,29.82,South,191,4.0,10.0,63,0.00,,,0.00,weatherlink.com 1.10,2013-04-24 06:41:00,
2013-04-24 02:56:00,65.7,53.0,29.82,SW,217,6.0,15.0,64,0.00,,,0.00,weatherlink.com 1.10,2013-04-24 06:56:00,
2013-04-24 03:11:00,65.7,53.0,29.82,SW,224,6.0,10.0,64,0.00,,,0.00,weatherlink.com 1.10,2013-04-24 07:11:00,
2013-04-24 03:26:00,65.7,53.0,29.81,SSW,202,3.0,11.0,64,0.00,,,0.00,weatherlink.com 1.10,2013-04-24 07:26:00,
2013-04-24 03:41:00,65.7,54.0,29.81,SW,228,3.0,8.0,65,0.00,,,0.00,weatherlink.com 1.10,2013-04-24 07:41:00,
2013-04-24 03:56:00,65.6,54.0,29.81,SSW,200,5.0,9.0,66,0.00,,,0.00,weatherlink.com 1.10,2013-04-24 07:56:00,
2013-04-24 04:11:00,65.9,55.0,29.81,SW,218,8.0,8.0,67,0.00,,,0.00,weatherlink.com 1.10,2013-04-24 08:11:00,
2013-04-24 04:26:00,66.3,55.0,29.81,SW,234,6.0,13.0,66,0.00,,,0.00,weatherlink.com 1.10,2013-04-24 08:26:00,
2013-04-24 04:41:00,66.1,55.0,29.81,SSW,211,3.0,15.0,68,0.00,,,0.00,weatherlink.com 1.10,2013-04-24 08:41:00,
2013-04-24 04:56:00,65.5,55.0,29.81,WSW,243,7.0,12.0,69,0.00,,,0.00,weatherlink.com 1.10,2013-04-24 08:56:00,
2013-04-24 05:11:00,65.4,55.0,29.82,SW,215,3.0,9.0,70,0.00,,,0.00,weatherlink.com 1.10,2013-04-24 09:11:00,
2013-04-24 05:26:00,65.4,55.0,29.81,SSW,204,6.0,9.0,70,0.00,,,0.00,weatherlink.com 1.10,2013-04-24 09:26:00,
2013-04-24 05:41:00,65.4,55.0,29.81,SW,224,4.0,9.0,70,0.00,,,0.00,weatherlink.com 1.10,2013-04-24 09:41:00,
2013-04-24 05:56:00,65.4,56.0,29.81,SW,214,5.0,8.0,71,0.00,,,0.00,weatherlink.com 1.10,2013-04-24 09:56:00,
2013-04-24 06:11:00,65.2,56.0,29.81,WSW,240,3.0,7.0,71,0.00,,,0.00,weatherlink.com 1.10,2013-04-24 10:11:00,
2013-04-24 06:27:00,65.0,56.0,29.81,SW,222,2.0,5.0,72,0.00,,,0.00,weatherlink.com 1.10,2013-04-24 10:27:00,
2013-04-24 06:42:00,65.1,56.0,29.81,SW,231,4.0,9.0,72,0.00,,,0.00,weatherlink.com 1.10,2013-04-24 10:42:00,
2013-04-24 06:57:00,64.8,56.0,29.81,SW,225,4.0,6.0,73,0.00,,,0.00,weatherlink.com 1.10,2013-04-24 10:57:00,
2013-04-24 07:12:00,63.1,57.0,29.81,NNE,27,2.0,8.0,80,0.00,,,0.00,weatherlink.com 1.10,2013-04-24 11:12:00,
2013-04-24 07:27:00,61.8,57.0,29.80,SW,235,0.0,2.0,83,0.00,,,0.00,weatherlink.com 1.10,2013-04-24 11:27:00,
2013-04-24 07:42:00,61.0,57.0,29.82,WSW,252,2.0,9.0,85,0.00,,,0.00,weatherlink.com 1.10,2013-04-24 11:42:00,
2013-04-24 07:57:00,59.6,56.0,29.83,WSW,238,2.0,6.0,88,0.01,,,0.01,weatherlink.com 1.10,2013-04-24 11:57:00,
2013-04-24 08:12:00,56.2,52.0,29.83,West,273,8.0,17.0,87,0.05,,,0.05,weatherlink.com 1.10,2013-04-24 12:12:00,
2013-04-24 08:27:00,53.0,51.0,29.83,North,358,2.0,10.0,91,0.05,,,0.05,weatherlink.com 1.10,2013-04-24 12:27:00,
2013-04-24 08:42:00,53.0,51.0,29.82,ESE,123,1.0,3.0,93,0.06,,,0.06,weatherlink.com 1.10,2013-04-24 12:42:00,
2013-04-24 08:57:00,53.2,52.0,29.82,WNW,283,0.0,2.0,94,0.06,,,0.07,weatherlink.com 1.10,2013-04-24 12:57:00,
2013-04-24 09:12:00,53.3,52.0,29.83,West,280,1.0,7.0,94,0.03,,,0.08,weatherlink.com 1.10,2013-04-24 13:12:00,
2013-04-24 09:27:00,51.9,50.0,29.83,NNW,331,2.0,6.0,93,0.08,,,0.13,weatherlink.com 1.10,2013-04-24 13:27:00,
2013-04-24 09:42:00,50.6,49.0,29.84,SW,219,0.0,5.0,93,0.13,,,0.19,weatherlink.com 1.10,2013-04-24 13:42:00,
2013-04-24 09:57:00,50.3,49.0,29.84,SSW,207,0.0,1.0,94,0.15,,,0.22,weatherlink.com 1.10,2013-04-24 13:57:00,
2013-04-24 10:12:00,49.3,47.0,29.86,NNW,339,10.0,10.0,93,0.23,,,0.31,weatherlink.com 1.10,2013-04-24 14:12:00,
2013-04-24 10:28:00,47.2,45.0,29.88,WNW,288,2.0,6.0,93,0.30,,,0.43,weatherlink.com 1.10,2013-04-24 14:28:00,
2013-04-24 10:42:00,46.9,46.0,29.85,NW,325,2.0,2.0,95,0.32,,,0.51,weatherlink.com 1.10,2013-04-24 14:42:00,
2013-04-24 10:57:00,46.9,46.0,29.86,SSW,195,0.0,6.0,95,0.31,,,0.54,weatherlink.com 1.10,2013-04-24 14:57:00,
2013-04-24 11:12:00,46.3,45.0,29.85,SW,235,1.0,6.0,94,0.23,,,0.55,weatherlink.com 1.10,2013-04-24 15:12:00,
2013-04-24 11:27:00,46.2,45.0,29.80,ESE,108,0.0,2.0,94,0.14,,,0.58,weatherlink.com 1.10,2013-04-24 15:27:00,
2013-04-24 11:42:00,46.3,45.0,29.89,SW,233,1.0,5.0,94,0.08,,,0.59,weatherlink.com 1.10,2013-04-24 15:42:00,
2013-04-24 11:57:00,45.4,44.0,29.92,SW,226,2.0,7.0,93,0.06,,,0.60,weatherlink.com 1.10,2013-04-24 15:57:00,
2013-04-24 12:12:00,44.9,43.0,29.92,WNW,285,5.0,7.0,94,0.05,,,0.60,weatherlink.com 1.10,2013-04-24 16:12:00,
2013-04-24 12:28:00,44.5,43.0,29.95,East,86,1.0,7.0,93,0.02,,,0.60,weatherlink.com 1.10,2013-04-24 16:28:00,
2013-04-24 12:43:00,44.2,42.0,29.96,SW,228,2.0,6.0,93,0.02,,,0.61,weatherlink.com 1.10,2013-04-24 16:43:00,
2013-04-24 12:58:00,44.0,42.0,29.97,NW,318,2.0,6.0,93,0.03,,,0.63,weatherlink.com 1.10,2013-04-24 16:58:00,
2013-04-24 13:13:00,43.9,42.0,29.98,SSW,208,2.0,8.0,94,0.03,,,0.63,weatherlink.com 1.10,2013-04-24 17:13:00,
2013-04-24 13:28:00,44.1,43.0,29.99,SSW,195,2.0,7.0,94,0.03,,,0.63,weatherlink.com 1.10,2013-04-24 17:28:00,
2013-04-24 13:43:00,44.2,43.0,29.98,West,272,0.0,9.0,94,0.02,,,0.63,weatherlink.com 1.10,2013-04-24 17:43:00,
2013-04-24 13:58:00,43.9,42.0,29.99,SW,224,2.0,10.0,93,0.00,,,0.63,weatherlink.com 1.10,2013-04-24 17:58:00,
2013-04-24 14:13:00,43.6,42.0,30.00,North,358,3.0,11.0,92,0.01,,,0.64,weatherlink.com 1.10,2013-04-24 18:13:00,
2013-04-24 14:28:00,43.5,41.0,30.01,SW,226,1.0,11.0,90,0.01,,,0.64,weatherlink.com 1.10,2013-04-24 18:28:00,
2013-04-24 14:43:00,43.3,41.0,30.02,South,177,2.0,12.0,90,0.01,,,0.64,weatherlink.com 1.10,2013-04-24 18:43:00,
2013-04-24 14:58:00,42.8,40.0,30.03,NW,326,0.0,7.0,89,0.01,,,0.64,weatherlink.com 1.10,2013-04-24 18:58:00,
2013-04-24 15:13:00,43.7,41.0,30.04,West,260,2.0,6.0,91,0.00,,,0.64,weatherlink.com 1.10,2013-04-24 19:13:00,
2013-04-24 15:28:00,43.9,40.0,30.05,NE,34,3.0,14.0,86,0.00,,,0.64,weatherlink.com 1.10,2013-04-24 19:28:00,
2013-04-24 15:43:00,44.1,40.0,30.06,NNE,18,6.0,11.0,85,0.00,,,0.64,weatherlink.com 1.10,2013-04-24 19:43:00,
2013-04-24 15:58:00,44.5,39.0,30.07,NNW,333,8.0,13.0,82,0.00,,,0.64,weatherlink.com 1.10,2013-04-24 19:58:00,
2013-04-24 16:13:00,44.6,39.0,30.07,ENE,75,2.0,9.0,82,0.00,,,0.64,weatherlink.com 1.10,2013-04-24 20:13:00,
2013-04-24 16:28:00,44.6,38.0,30.09,NE,47,7.0,15.0,78,0.00,,,0.64,weatherlink.com 1.10,2013-04-24 20:28:00,
2013-04-24 16:43:00,45.1,38.0,30.10,NW,311,6.0,11.0,75,0.00,,,0.64,weatherlink.com 1.10,2013-04-24 20:43:00,
2013-04-24 16:58:00,45.4,37.0,30.11,WNW,283,3.0,10.0,73,0.00,,,0.64,weatherlink.com 1.10,2013-04-24 20:58:00,
2013-04-24 17:13:00,45.7,38.0,30.12,West,278,4.0,7.0,74,0.00,,,0.64,weatherlink.com 1.10,2013-04-24 21:13:00,
2013-04-24 17:28:00,45.7,37.0,30.13,WNW,286,2.0,11.0,73,0.00,,,0.64,weatherlink.com 1.10,2013-04-24 21:28:00,
2013-04-24 17:43:00,45.5,37.0,30.14,SW,226,1.0,9.0,72,0.00,,,0.64,weatherlink.com 1.10,2013-04-24 21:43:00,
2013-04-24 17:58:00,45.7,37.0,30.14,NW,322,2.0,6.0,72,0.00,,,0.64,weatherlink.com 1.10,2013-04-24 21:58:00,
2013-04-24 18:13:00,46.0,37.0,30.15,WNW,285,2.0,6.0,72,0.00,,,0.64,weatherlink.com 1.10,2013-04-24 22:13:00,
2013-04-24 18:29:00,46.3,37.0,30.16,ESE,105,2.0,9.0,71,0.00,,,0.64,weatherlink.com 1.10,2013-04-24 22:29:00,
2013-04-24 18:44:00,47.5,37.0,30.17,SW,217,2.0,9.0,68,0.00,,,0.64,weatherlink.com 1.10,2013-04-24 22:44:00,
2013-04-24 18:59:00,47.0,36.0,30.17,NNW,340,8.0,10.0,67,0.00,,,0.64,weatherlink.com 1.10,2013-04-24 22:59:00,
2013-04-24 19:14:00,46.8,37.0,30.17,SSW,210,0.0,5.0,70,0.00,,,0.64,weatherlink.com 1.10,2013-04-24 23:14:00,
2013-04-24 19:29:00,46.6,37.0,30.17,SW,218,3.0,6.0,70,0.00,,,0.64,weatherlink.com 1.10,2013-04-24 23:29:00,
2013-04-24 19:44:00,46.4,37.0,30.18,WSW,242,1.0,7.0,70,0.00,,,0.64,weatherlink.com 1.10,2013-04-24 23:44:00,
2013-04-24 19:59:00,45.9,37.0,30.19,SW,236,1.0,6.0,71,0.00,,,0.64,weatherlink.com 1.10,2013-04-24 23:59:00,
2013-04-24 20:14:00,45.6,37.0,30.19,WSW,246,0.0,8.0,72,0.00,,,0.64,weatherlink.com 1.10,2013-04-25 00:14:00,
2013-04-24 20:29:00,44.9,37.0,30.20,SW,217,1.0,7.0,74,0.00,,,0.64,weatherlink.com 1.10,2013-04-25 00:29:00,
2013-04-24 20:44:00,44.1,37.0,30.20,WSW,256,0.0,1.0,76,0.00,,,0.64,weatherlink.com 1.10,2013-04-25 00:44:00,
2013-04-24 20:59:00,42.6,38.0,30.22,West,276,0.0,0.0,82,0.00,,,0.64,weatherlink.com 1.10,2013-04-25 00:59:00,
2013-04-24 21:14:00,41.0,37.0,30.23,West,276,0.0,0.0,86,0.00,,,0.64,weatherlink.com 1.10,2013-04-25 01:14:00,
2013-04-24 21:29:00,40.3,37.0,30.23,West,276,0.0,0.0,88,0.00,,,0.64,weatherlink.com 1.10,2013-04-25 01:29:00,
2013-04-24 21:44:00,39.7,37.0,30.24,West,276,0.0,1.0,89,0.00,,,0.64,weatherlink.com 1.10,2013-04-25 01:44:00,
2013-04-24 21:59:00,39.5,37.0,30.24,West,276,0.0,1.0,91,0.00,,,0.64,weatherlink.com 1.10,2013-04-25 01:59:00,
2013-04-24 22:14:00,39.5,37.0,30.25,West,280,1.0,1.0,91,0.00,,,0.64,weatherlink.com 1.10,2013-04-25 02:14:00,
2013-04-24 22:29:00,38.9,37.0,30.26,West,276,0.0,1.0,91,0.00,,,0.64,weatherlink.com 1.10,2013-04-25 02:29:00,
2013-04-24 22:44:00,38.3,36.0,30.26,West,276,0.0,1.0,92,0.00,,,0.64,weatherlink.com 1.10,2013-04-25 02:44:00,
2013-04-24 22:59:00,37.9,36.0,30.26,West,276,0.0,1.0,93,0.00,,,0.64,weatherlink.com 1.10,2013-04-25 02:59:00,
2013-04-24 23:29:00,37.3,36.0,30.26,West,275,0.0,0.0,94,0.00,,,0.64,weatherlink.com 1.10,2013-04-25 03:29:00,
2013-04-24 23:44:00,37.2,36.0,30.27,West,276,0.0,0.0,94,0.00,,,0.64,weatherlink.com 1.10,2013-04-25 03:44:00,
2013-04-24 23:59:00,36.9,36.0,30.27,West,276,0.0,0.0,95,0.00,,,0.64,weatherlink.com 1.10,2013-04-25 03:59:00,